| time (UTC) | temp F | wind direction | speed MPH | gust MPH | rain 1hr in | rain 24hr in | rain mn in | humidity % | barometer mb |
| 20260505153308 | 53 | 354 | 4.0 | 6.0 | 0.00 | 0.00 | 0.00 | 32 | 1011.5 |
| 20260505152805 | 52 | 316 | 2.0 | 4.0 | 0.00 | 0.00 | 0.00 | 32 | 1011.2 |
| 20260505152304 | 52 | 347 | 6.0 | 8.0 | 0.00 | 0.00 | 0.00 | 33 | 1011.5 |
| 20260505151755 | 52 | 311 | 6.0 | 7.0 | 0.00 | 0.00 | 0.00 | 32 | 1011.5 |
| 20260505151253 | 52 | 335 | 8.0 | 9.0 | 0.00 | 0.00 | 0.00 | 32 | 1011.4 |
| 20260505150750 | 53 | 327 | 4.0 | 4.0 | 0.00 | 0.00 | 0.00 | 32 | 1011.4 |
| 20260505150247 | 52 | 328 | 6.0 | 8.0 | 0.00 | 0.00 | 0.00 | 32 | 1011.4 |
| 20260505140217 | 51 | 342 | 4.0 | 6.0 | 0.00 | 0.00 | 0.00 | 40 | 1011.3 |
| 20260505130141 | 50 | 307 | 4.0 | 4.0 | 0.00 | 0.00 | 0.00 | 46 | 1011.9 |
| 20260505124630 | 49 | 323 | 2.0 | 3.0 | 0.00 | 0.00 | 0.00 | 51 | 1012.5 |
| 20260505124127 | 48 | 285 | 1.0 | 2.0 | 0.00 | 0.00 | 0.00 | 50 | 1012.4 |
| 20260505123623 | 48 | 294 | 4.0 | 4.0 | 0.00 | 0.00 | 0.00 | 51 | 1012.3 |
| 20260505123120 | 49 | 254 | 0.0 | 1.0 | 0.00 | 0.00 | 0.00 | 49 | 1012.1 |
| 20260505122617 | 49 | 270 | 2.0 | 3.0 | 0.00 | 0.00 | 0.00 | 49 | 1012.1 |
| 20260505122114 | 49 | 347 | 1.0 | 2.0 | 0.00 | 0.00 | 0.00 | 48 | 1012.0 |
| 20260505121610 | 49 | 317 | 0.0 | 0.0 | 0.00 | 0.00 | 0.00 | 48 | 1012.0 |
| 20260505121107 | 48 | 300 | 2.0 | 2.0 | 0.00 | 0.00 | 0.00 | 49 | 1011.8 |
| 20260505120603 | 48 | 326 | 1.0 | 1.0 | 0.00 | 0.00 | 0.00 | 49 | 1011.7 |
| 20260505120059 | 48 | 280 | 1.0 | 1.0 | 0.00 | 0.00 | 0.00 | 48 | 1011.7 |
| 20260505115554 | 48 | 304 | 1.0 | 1.0 | 0.00 | 0.00 | 0.00 | 48 | 1011.7 |
| 20260505115051 | 48 | 309 | 0.0 | 1.0 | 0.00 | 0.00 | 0.00 | 49 | 1011.5 |
| 20260505114548 | 47 | 321 | 0.0 | 0.0 | 0.00 | 0.00 | 0.00 | 49 | 1011.4 |
| 20260505114044 | 47 | 335 | 0.0 | 0.0 | 0.00 | 0.00 | 0.00 | 51 | 1011.1 |
| 20260505113541 | 47 | 350 | 1.0 | 1.0 | 0.00 | 0.00 | 0.00 | 51 | 1010.9 |
| 20260505113037 | 47 | 321 | 2.0 | 3.0 | 0.00 | 0.00 | 0.00 | 50 | 1010.9 |
| 20260505112529 | 47 | 328 | 1.0 | 1.0 | 0.00 | 0.00 | 0.00 | 50 | 1011.1 |
| 20260505112027 | 47 | 319 | 1.0 | 1.0 | 0.00 | 0.00 | 0.00 | 50 | 1011.0 |
| 20260505111525 | 47 | 299 | 2.0 | 3.0 | 0.00 | 0.00 | 0.00 | 50 | 1010.9 |
| 20260505111022 | 47 | 319 | 1.0 | 1.0 | 0.00 | 0.00 | 0.00 | 50 | 1010.5 |
| 20260505110519 | 47 | 330 | 1.0 | 1.0 | 0.00 | 0.00 | 0.00 | 50 | 1010.3 |
| 20260505101951 | 49 | 326 | 3.0 | 4.0 | 0.00 | 0.00 | 0.00 | 44 | 1009.4 |
| 20260505101449 | 49 | 351 | 4.0 | 6.0 | 0.00 | 0.00 | 0.00 | 44 | 1009.6 |
| 20260505100945 | 49 | 333 | 4.0 | 4.0 | 0.00 | 0.00 | 0.00 | 43 | 1009.3 |
| 20260505100443 | 49 | 319 | 6.0 | 7.0 | 0.00 | 0.00 | 0.00 | 43 | 1008.8 |
| 20260505095939 | 49 | 328 | 4.0 | 4.0 | 0.00 | 0.00 | 0.00 | 43 | 1008.8 |
| 20260505095436 | 49 | 352 | 4.0 | 4.0 | 0.00 | 0.00 | 0.00 | 42 | 1008.8 |
| 20260505094932 | 49 | 355 | 7.0 | 9.0 | 0.00 | 0.00 | 0.00 | 42 | 1009.2 |
| 20260505094429 | 50 | 350 | 3.0 | 3.0 | 0.00 | 0.00 | 0.00 | 42 | 1009.0 |
| 20260505093925 | 50 | 337 | 4.0 | 4.0 | 0.00 | 0.00 | 0.00 | 42 | 1009.2 |
| 20260505093422 | 50 | 7 | 4.0 | 6.0 | 0.00 | 0.00 | 0.00 | 42 | 1009.3 |
| 20260505092919 | 50 | 69 | 4.0 | 6.0 | 0.00 | 0.00 | 0.00 | 42 | 1009.9 |
| 20260505092417 | 50 | 333 | 8.0 | 10.0 | 0.00 | 0.00 | 0.00 | 41 | 1009.9 |
| 20260505091914 | 50 | 298 | 12.0 | 15.0 | 0.00 | 0.00 | 0.00 | 41 | 1010.0 |
| 20260505091412 | 50 | 351 | 5.0 | 6.0 | 0.00 | 0.00 | 0.00 | 41 | 1009.6 |
| 20260505090909 | 50 | 276 | 6.0 | 8.0 | 0.00 | 0.00 | 0.00 | 41 | 1009.5 |
| 20260505090408 | 50 | 346 | 6.0 | 8.0 | 0.00 | 0.00 | 0.00 | 43 | 1009.1 |
| 20260505085904 | 50 | 9 | 4.0 | 6.0 | 0.00 | 0.00 | 0.00 | 45 | 1009.1 |
| 20260505085402 | 50 | 320 | 6.0 | 8.0 | 0.00 | 0.00 | 0.00 | 45 | 1008.8 |
| 20260505084900 | 50 | 299 | 3.0 | 6.0 | 0.00 | 0.00 | 0.00 | 45 | 1008.6 |
| 20260505084358 | 50 | 357 | 6.0 | 8.0 | 0.00 | 0.00 | 0.00 | 46 | 1008.7 |
| 20260505083855 | 50 | 330 | 3.0 | 4.0 | 0.00 | 0.00 | 0.00 | 46 | 1008.3 |
| 20260505083353 | 50 | 336 | 7.0 | 9.0 | 0.00 | 0.00 | 0.00 | 46 | 1008.3 |
| 20260505082849 | 50 | 326 | 8.0 | 9.0 | 0.00 | 0.00 | 0.00 | 46 | 1008.8 |
| 20260505082345 | 50 | 349 | 3.0 | 4.0 | 0.00 | 0.00 | 0.00 | 47 | 1009.0 |
| 20260505081842 | 50 | 302 | 12.0 | 15.0 | 0.00 | 0.00 | 0.00 | 45 | 1008.2 |
| 20260505081339 | 50 | 348 | 7.0 | 9.0 | 0.00 | 0.00 | 0.00 | 46 | 1007.7 |
| 20260505080836 | 50 | 308 | 4.0 | 4.0 | 0.00 | 0.00 | 0.00 | 46 | 1008.1 |
| 20260505080331 | 51 | 308 | 7.0 | 9.0 | 0.00 | 0.00 | 0.00 | 46 | 1008.5 |
| 20260505075827 | 51 | 269 | 11.0 | 14.0 | 0.00 | 0.00 | 0.00 | 45 | 1008.7 |
| 20260505075324 | 51 | 321 | 10.0 | 11.0 | 0.00 | 0.00 | 0.00 | 45 | 1008.1 |
| 20260505074821 | 51 | 328 | 12.0 | 15.0 | 0.00 | 0.00 | 0.00 | 45 | 1008.5 |
| 20260505074319 | 51 | 359 | 7.0 | 8.0 | 0.00 | 0.00 | 0.00 | 46 | 1008.6 |
| 20260505073816 | 51 | 311 | 9.0 | 10.0 | 0.00 | 0.00 | 0.00 | 47 | 1008.0 |
| 20260505073314 | 50 | 307 | 3.0 | 4.0 | 0.00 | 0.00 | 0.00 | 47 | 1008.1 |
| 20260505072811 | 50 | 309 | 7.0 | 8.0 | 0.00 | 0.00 | 0.00 | 46 | 1008.0 |
| 20260505072306 | 51 | 325 | 5.0 | 6.0 | 0.00 | 0.00 | 0.00 | 46 | 1007.8 |
| 20260505071802 | 51 | 319 | 9.0 | 10.0 | 0.00 | 0.00 | 0.00 | 45 | 1007.8 |
| 20260505071259 | 51 | 5 | 6.0 | 8.0 | 0.00 | 0.00 | 0.00 | 45 | 1007.4 |
| 20260505070757 | 51 | 290 | 6.0 | 10.0 | 0.00 | 0.00 | 0.00 | 44 | 1007.1 |
| 20260505070254 | 51 | 345 | 12.0 | 15.0 | 0.00 | 0.00 | 0.00 | 44 | 1007.0 |
| 20260505065749 | 51 | 318 | 6.0 | 7.0 | 0.00 | 0.00 | 0.00 | 45 | 1006.9 |
| 20260505065246 | 51 | 359 | 6.0 | 9.0 | 0.00 | 0.00 | 0.00 | 45 | 1007.1 |
| 20260505064743 | 51 | 3 | 8.0 | 11.0 | 0.00 | 0.00 | 0.00 | 46 | 1007.0 |
| 20260505064240 | 51 | 339 | 9.0 | 14.0 | 0.00 | 0.00 | 0.00 | 46 | 1006.8 |
| 20260505063738 | 51 | 348 | 8.0 | 9.0 | 0.00 | 0.00 | 0.00 | 46 | 1006.7 |
| 20260505063234 | 52 | 256 | 7.0 | 10.0 | 0.00 | 0.00 | 0.00 | 46 | 1006.6 |
| 20260505062730 | 52 | 330 | 4.0 | 7.0 | 0.00 | 0.00 | 0.00 | 46 | 1006.8 |
| 20260505062228 | 52 | 324 | 12.0 | 15.0 | 0.00 | 0.00 | 0.00 | 46 | 1006.8 |
| 20260505061725 | 52 | 296 | 7.0 | 8.0 | 0.00 | 0.00 | 0.00 | 47 | 1006.7 |
| 20260505061223 | 52 | 327 | 3.0 | 4.0 | 0.00 | 0.00 | 0.00 | 47 | 1006.6 |
| 20260505060720 | 52 | 311 | 10.0 | 13.0 | 0.00 | 0.00 | 0.00 | 47 | 1006.5 |
| 20260505060217 | 53 | 311 | 13.0 | 14.0 | 0.00 | 0.00 | 0.00 | 47 | 1006.3 |
| 20260505055712 | 53 | 334 | 5.0 | 7.0 | 0.00 | 0.00 | 0.00 | 47 | 1006.1 |
| 20260505055209 | 53 | 346 | 8.0 | 9.0 | 0.00 | 0.00 | 0.00 | 47 | 1005.8 |
| 20260505054706 | 53 | 350 | 8.0 | 10.0 | 0.00 | 0.00 | 0.00 | 47 | 1005.8 |
| 20260505054204 | 53 | 19 | 9.0 | 11.0 | 0.00 | 0.00 | 0.00 | 46 | 1005.6 |
| 20260505053702 | 53 | 351 | 10.0 | 14.0 | 0.00 | 0.00 | 0.00 | 46 | 1005.7 |
| 20260505053158 | 54 | 342 | 6.0 | 8.0 | 0.00 | 0.00 | 0.00 | 46 | 1005.5 |
| 20260505052655 | 54 | 335 | 11.0 | 15.0 | 0.00 | 0.00 | 0.00 | 46 | 1005.8 |
| 20260505052152 | 54 | 310 | 9.0 | 10.0 | 0.00 | 0.00 | 0.00 | 46 | 1005.7 |
| 20260505051649 | 54 | 256 | 9.0 | 10.0 | 0.00 | 0.00 | 0.00 | 46 | 1005.6 |
| 20260505051147 | 55 | 304 | 6.0 | 7.0 | 0.00 | 0.00 | 0.00 | 46 | 1005.8 |
| 20260505050645 | 55 | 320 | 6.0 | 7.0 | 0.00 | 0.00 | 0.00 | 45 | 1005.7 |
| 20260505050143 | 55 | 337 | 8.0 | 10.0 | 0.00 | 0.00 | 0.00 | 45 | 1005.5 |
| 20260505041612 | 57 | 301 | 5.0 | 6.0 | 0.00 | 0.00 | 0.00 | 40 | 1005.3 |
| 20260505041110 | 57 | 312 | 5.0 | 6.0 | 0.00 | 0.00 | 0.00 | 39 | 1005.2 |
| 20260505040607 | 58 | 325 | 4.0 | 6.0 | 0.00 | 0.00 | 0.00 | 39 | 1005.1 |
| 20260505040104 | 58 | 326 | 6.0 | 7.0 | 0.00 | 0.00 | 0.00 | 38 | 1005.5 |
| 20260505035600 | 58 | 336 | 5.0 | 7.0 | 0.00 | 0.00 | 0.00 | 38 | 1005.1 |
| 20260505035057 | 58 | 303 | 5.0 | 7.0 | 0.00 | 0.00 | 0.00 | 38 | 1005.1 |
| 20260505034553 | 58 | 251 | 3.0 | 3.0 | 0.00 | 0.00 | 0.00 | 37 | 1005.1 |
| 20260505034050 | 58 | 308 | 4.0 | 6.0 | 0.00 | 0.00 | 0.00 | 37 | 1005.2 |
| 20260505033547 | 59 | 310 | 4.0 | 6.0 | 0.00 | 0.00 | 0.00 | 37 | 1005.0 |
| 20260505033045 | 59 | 335 | 4.0 | 4.0 | 0.00 | 0.00 | 0.00 | 36 | 1004.8 |
| 20260505032543 | 59 | 323 | 5.0 | 6.0 | 0.00 | 0.00 | 0.00 | 36 | 1005.0 |
| 20260505032039 | 59 | 301 | 5.0 | 7.0 | 0.00 | 0.00 | 0.00 | 36 | 1004.8 |
| 20260505031537 | 59 | 263 | 6.0 | 8.0 | 0.00 | 0.00 | 0.00 | 36 | 1004.9 |
| 20260505031033 | 60 | 335 | 6.0 | 8.0 | 0.00 | 0.00 | 0.00 | 36 | 1004.7 |
| 20260505030530 | 60 | 8 | 8.0 | 9.0 | 0.00 | 0.00 | 0.00 | 35 | 1005.0 |
| 20260505030026 | 60 | 1 | 9.0 | 11.0 | 0.00 | 0.00 | 0.00 | 35 | 1005.0 |
| 20260505025522 | 61 | 314 | 5.0 | 6.0 | 0.00 | 0.00 | 0.00 | 36 | 1005.0 |
| 20260505025021 | 60 | 310 | 6.0 | 7.0 | 0.00 | 0.00 | 0.00 | 36 | 1004.8 |
| 20260505024518 | 61 | 293 | 5.0 | 8.0 | 0.00 | 0.00 | 0.00 | 35 | 1004.8 |
| 20260505024015 | 61 | 320 | 7.0 | 8.0 | 0.00 | 0.00 | 0.00 | 35 | 1004.8 |
| 20260505023511 | 61 | 305 | 5.0 | 6.0 | 0.00 | 0.00 | 0.00 | 36 | 1004.6 |
| 20260505023009 | 61 | 322 | 3.0 | 3.0 | 0.00 | 0.00 | 0.00 | 36 | 1004.4 |
| 20260505022507 | 62 | 343 | 5.0 | 7.0 | 0.00 | 0.00 | 0.00 | 36 | 1004.3 |
| 20260505022004 | 62 | 336 | 4.0 | 6.0 | 0.00 | 0.00 | 0.00 | 35 | 1003.9 |
| 20260505021500 | 62 | 309 | 6.0 | 10.0 | 0.00 | 0.00 | 0.00 | 35 | 1004.1 |
| 20260505020955 | 63 | 328 | 10.0 | 13.0 | 0.00 | 0.00 | 0.00 | 35 | 1003.8 |
| 20260505020451 | 63 | 309 | 8.0 | 9.0 | 0.00 | 0.00 | 0.00 | 35 | 1003.7 |
| 20260505015948 | 63 | 314 | 8.0 | 9.0 | 0.00 | 0.00 | 0.00 | 36 | 1003.4 |
| 20260505015446 | 63 | 3 | 4.0 | 6.0 | 0.00 | 0.00 | 0.00 | 37 | 1003.3 |
| 20260505014942 | 64 | 305 | 5.0 | 8.0 | 0.00 | 0.00 | 0.00 | 37 | 1003.2 |
| 20260505014439 | 64 | 313 | 10.0 | 13.0 | 0.00 | 0.00 | 0.00 | 36 | 1003.2 |
| 20260505013937 | 64 | 310 | 7.0 | 9.0 | 0.00 | 0.00 | 0.00 | 36 | 1002.9 |
| 20260505013433 | 65 | 343 | 9.0 | 14.0 | 0.00 | 0.00 | 0.00 | 36 | 1002.7 |
| 20260505012931 | 65 | 308 | 6.0 | 7.0 | 0.00 | 0.00 | 0.00 | 37 | 1002.7 |
| 20260505012429 | 65 | 1 | 6.0 | 8.0 | 0.00 | 0.00 | 0.00 | 37 | 1002.6 |
| 20260505011925 | 66 | 342 | 8.0 | 10.0 | 0.00 | 0.00 | 0.00 | 36 | 1002.4 |
| 20260505011422 | 66 | 339 | 10.0 | 10.0 | 0.00 | 0.00 | 0.00 | 36 | 1002.2 |
| 20260505010918 | 66 | 345 | 13.0 | 17.0 | 0.00 | 0.00 | 0.00 | 35 | 1002.1 |
| 20260505010414 | 67 | 316 | 11.0 | 13.0 | 0.00 | 0.00 | 0.00 | 35 | 1001.9 |
| 20260505005910 | 68 | 333 | 8.0 | 10.0 | 0.00 | 0.00 | 0.00 | 35 | 1001.9 |
| 20260505005407 | 68 | 16 | 9.0 | 10.0 | 0.00 | 0.00 | 0.00 | 35 | 1001.7 |
| 20260505004905 | 68 | 213 | 9.0 | 11.0 | 0.00 | 0.00 | 0.00 | 35 | 1001.6 |
| 20260505004401 | 69 | 319 | 12.0 | 16.0 | 0.00 | 0.00 | 0.00 | 34 | 1001.4 |
| 20260505003858 | 70 | 312 | 9.0 | 13.0 | 0.00 | 0.00 | 0.00 | 34 | 1001.1 |
| 20260505003355 | 70 | 321 | 8.0 | 10.0 | 0.00 | 0.00 | 0.00 | 33 | 1001.0 |
| 20260505002852 | 70 | 19 | 5.0 | 7.0 | 0.00 | 0.00 | 0.00 | 33 | 1001.0 |
| 20260505002348 | 71 | 335 | 9.0 | 11.0 | 0.00 | 0.00 | 0.00 | 33 | 1000.6 |
| 20260505001847 | 71 | 313 | 14.0 | 16.0 | 0.00 | 0.00 | 0.00 | 32 | 1000.6 |
| 20260505001344 | 72 | 293 | 9.0 | 11.0 | 0.00 | 0.00 | 0.00 | 32 | 1000.3 |
| 20260505000841 | 72 | 345 | 9.0 | 11.0 | 0.00 | 0.00 | 0.00 | 32 | 1000.3 |
| 20260505000338 | 73 | 300 | 14.0 | 19.0 | 0.00 | 0.00 | 0.00 | 33 | 1000.2 |
| 20260504235835 | 73 | 25 | 14.0 | 16.0 | 0.00 | 0.00 | 0.00 | 33 | 999.9 |
| 20260504235332 | 73 | 280 | 4.0 | 6.0 | 0.00 | 0.00 | 0.00 | 33 | 999.8 |
| 20260504234828 | 74 | 304 | 12.0 | 14.0 | 0.00 | 0.00 | 0.00 | 32 | 999.6 |
| 20260504234326 | 74 | 324 | 12.0 | 15.0 | 0.00 | 0.00 | 0.00 | 32 | 999.6 |
| 20260504233822 | 74 | 319 | 11.0 | 13.0 | 0.00 | 0.00 | 0.00 | 32 | 999.4 |
| 20260504233318 | 75 | 7 | 10.0 | 13.0 | 0.00 | 0.00 | 0.00 | 32 | 999.4 |
| 20260504232815 | 76 | 325 | 12.0 | 15.0 | 0.00 | 0.00 | 0.00 | 32 | 999.5 |
| 20260504232312 | 76 | 331 | 12.0 | 14.0 | 0.00 | 0.00 | 0.00 | 32 | 999.4 |
| 20260504231809 | 77 | 311 | 17.0 | 19.0 | 0.00 | 0.00 | 0.00 | 32 | 999.0 |
| 20260504231306 | 77 | 318 | 14.0 | 17.0 | 0.00 | 0.00 | 0.00 | 32 | 999.3 |
| 20260504230802 | 77 | 29 | 10.0 | 14.0 | 0.00 | 0.00 | 0.00 | 32 | 999.0 |
| 20260504230300 | 78 | 326 | 15.0 | 18.0 | 0.00 | 0.00 | 0.00 | 32 | 999.2 |
| 20260504225758 | 78 | 309 | 12.0 | 15.0 | 0.00 | 0.00 | 0.00 | 33 | 998.9 |
| 20260504225254 | 78 | 320 | 14.0 | 17.0 | 0.00 | 0.00 | 0.00 | 33 | 998.9 |
| 20260504224752 | 80 | 332 | 8.0 | 10.0 | 0.00 | 0.00 | 0.00 | 33 | 999.0 |
| 20260504224249 | 79 | 314 | 5.0 | 7.0 | 0.00 | 0.00 | 0.00 | 34 | 998.9 |
| 20260504223745 | 78 | 322 | 6.0 | 8.0 | 0.00 | 0.00 | 0.00 | 36 | 998.9 |
| 20260504223241 | 78 | 347 | 6.0 | 9.0 | 0.00 | 0.00 | 0.00 | 36 | 998.7 |
| 20260504222738 | 79 | 282 | 7.0 | 10.0 | 0.00 | 0.00 | 0.00 | 35 | 998.6 |
| 20260504222234 | 78 | 241 | 9.0 | 10.0 | 0.00 | 0.00 | 0.00 | 35 | 998.0 |
| 20260504221732 | 79 | 1 | 10.0 | 14.0 | 0.00 | 0.00 | 0.00 | 35 | 998.2 |
| 20260504221229 | 79 | 274 | 6.0 | 7.0 | 0.00 | 0.00 | 0.00 | 33 | 998.1 |
| 20260504220725 | 79 | 248 | 6.0 | 7.0 | 0.00 | 0.00 | 0.00 | 33 | 997.9 |
| 20260504220223 | 79 | 275 | 9.0 | 10.0 | 0.00 | 0.00 | 0.00 | 36 | 998.3 |
| 20260504215720 | 80 | 311 | 8.0 | 10.0 | 0.00 | 0.00 | 0.00 | 33 | 998.5 |
| 20260504215217 | 80 | 333 | 9.0 | 13.0 | 0.00 | 0.00 | 0.00 | 31 | 998.3 |
| 20260504214712 | 80 | 328 | 5.0 | 6.0 | 0.00 | 0.00 | 0.00 | 30 | 998.2 |
| 20260504214209 | 81 | 311 | 6.0 | 9.0 | 0.00 | 0.00 | 0.00 | 30 | 998.3 |
| 20260504213706 | 82 | 259 | 7.0 | 8.0 | 0.00 | 0.00 | 0.00 | 30 | 998.5 |
| 20260504213202 | 82 | 254 | 6.0 | 8.0 | 0.00 | 0.00 | 0.00 | 30 | 998.6 |
| 20260504212659 | 81 | 305 | 9.0 | 13.0 | 0.00 | 0.00 | 0.00 | 30 | 998.4 |
| 20260504212156 | 81 | 271 | 5.0 | 9.0 | 0.00 | 0.00 | 0.00 | 30 | 998.5 |
| 20260504211653 | 81 | 277 | 8.0 | 11.0 | 0.00 | 0.00 | 0.00 | 29 | 998.5 |
| 20260504211149 | 81 | 355 | 8.0 | 9.0 | 0.00 | 0.00 | 0.00 | 30 | 998.6 |
| 20260504210647 | 81 | 261 | 8.0 | 11.0 | 0.00 | 0.00 | 0.00 | 30 | 998.6 |
| 20260504210143 | 81 | 272 | 10.0 | 15.0 | 0.00 | 0.00 | 0.00 | 30 | 998.7 |
| 20260504205641 | 82 | 245 | 10.0 | 16.0 | 0.00 | 0.00 | 0.00 | 30 | 998.7 |
| 20260504205138 | 82 | 263 | 19.0 | 25.0 | 0.00 | 0.00 | 0.00 | 29 | 998.8 |
| 20260504204637 | 81 | 275 | 9.0 | 10.0 | 0.00 | 0.00 | 0.00 | 29 | 998.9 |
| 20260504204135 | 82 | 55 | 6.0 | 8.0 | 0.00 | 0.00 | 0.00 | 29 | 998.8 |
| 20260504203634 | 82 | 350 | 6.0 | 8.0 | 0.00 | 0.00 | 0.00 | 29 | 998.7 |
| 20260504203131 | 83 | 284 | 10.0 | 14.0 | 0.00 | 0.00 | 0.00 | 29 | 998.7 |
| 20260504202631 | 83 | 328 | 5.0 | 7.0 | 0.00 | 0.00 | 0.00 | 29 | 999.0 |
| 20260504202128 | 82 | 289 | 7.0 | 10.0 | 0.00 | 0.00 | 0.00 | 30 | 999.2 |
| 20260504201625 | 81 | 296 | 4.0 | 4.0 | 0.00 | 0.00 | 0.00 | 30 | 999.0 |
| 20260504201123 | 81 | 259 | 6.0 | 9.0 | 0.00 | 0.00 | 0.00 | 30 | 999.2 |
| 20260504200620 | 83 | 205 | 5.0 | 9.0 | 0.00 | 0.00 | 0.00 | 28 | 999.5 |
| 20260504200116 | 83 | 231 | 7.0 | 9.0 | 0.00 | 0.00 | 0.00 | 29 | 999.5 |
| 20260504195612 | 82 | 250 | 6.0 | 8.0 | 0.00 | 0.00 | 0.00 | 29 | 999.6 |
| 20260504195108 | 82 | 320 | 7.0 | 9.0 | 0.00 | 0.00 | 0.00 | 29 | 999.4 |
| 20260504194605 | 81 | 310 | 8.0 | 10.0 | 0.00 | 0.00 | 0.00 | 30 | 999.6 |
| 20260504194101 | 82 | 249 | 14.0 | 17.0 | 0.00 | 0.00 | 0.00 | 30 | 999.6 |
| 20260504193558 | 81 | 276 | 6.0 | 7.0 | 0.00 | 0.00 | 0.00 | 30 | 999.7 |
| 20260504193056 | 80 | 314 | 4.0 | 7.0 | 0.00 | 0.00 | 0.00 | 31 | 999.7 |
| 20260504192554 | 81 | 308 | 5.0 | 9.0 | 0.00 | 0.00 | 0.00 | 30 | 999.8 |
| 20260504192052 | 80 | 209 | 6.0 | 9.0 | 0.00 | 0.00 | 0.00 | 30 | 999.8 |
| 20260504191550 | 80 | 246 | 10.0 | 13.0 | 0.00 | 0.00 | 0.00 | 31 | 999.9 |
| 20260504191046 | 81 | 297 | 12.0 | 14.0 | 0.00 | 0.00 | 0.00 | 30 | 999.7 |
| 20260504190542 | 81 | 284 | 6.0 | 7.0 | 0.00 | 0.00 | 0.00 | 30 | 999.8 |
| 20260504190038 | 81 | 251 | 5.0 | 7.0 | 0.00 | 0.00 | 0.00 | 30 | 999.8 |
| 20260504185536 | 81 | 318 | 11.0 | 17.0 | 0.00 | 0.00 | 0.00 | 30 | 999.7 |
| 20260504185032 | 82 | 278 | 5.0 | 7.0 | 0.00 | 0.00 | 0.00 | 30 | 999.9 |
| 20260504184527 | 81 | 276 | 6.0 | 11.0 | 0.00 | 0.00 | 0.00 | 30 | 1000.0 |
| 20260504184023 | 81 | 156 | 6.0 | 8.0 | 0.00 | 0.00 | 0.00 | 29 | 1000.0 |
| 20260504183520 | 81 | 324 | 5.0 | 7.0 | 0.00 | 0.00 | 0.00 | 29 | 999.9 |
| 20260504183019 | 81 | 301 | 12.0 | 17.0 | 0.00 | 0.00 | 0.00 | 29 | 999.9 |
| 20260504182515 | 81 | 315 | 8.0 | 14.0 | 0.00 | 0.00 | 0.00 | 29 | 1000.1 |
| 20260504182012 | 81 | 261 | 6.0 | 10.0 | 0.00 | 0.00 | 0.00 | 29 | 1000.1 |
| 20260504181509 | 81 | 335 | 6.0 | 7.0 | 0.00 | 0.00 | 0.00 | 29 | 1000.1 |
| 20260504181008 | 80 | 261 | 10.0 | 15.0 | 0.00 | 0.00 | 0.00 | 29 | 1000.1 |
| 20260504180506 | 81 | 64 | 7.0 | 9.0 | 0.00 | 0.00 | 0.00 | 29 | 1000.1 |
| 20260504180004 | 80 | 246 | 5.0 | 9.0 | 0.00 | 0.00 | 0.00 | 29 | 1000.0 |
| 20260504175501 | 80 | 304 | 12.0 | 16.0 | 0.00 | 0.00 | 0.00 | 28 | 1000.2 |
| 20260504174958 | 80 | 54 | 5.0 | 8.0 | 0.00 | 0.00 | 0.00 | 30 | 1000.2 |
| 20260504174456 | 80 | 327 | 12.0 | 17.0 | 0.00 | 0.00 | 0.00 | 31 | 999.9 |
| 20260504173953 | 80 | 211 | 11.0 | 14.0 | 0.00 | 0.00 | 0.00 | 29 | 1000.2 |
| 20260504173449 | 79 | 291 | 11.0 | 15.0 | 0.00 | 0.00 | 0.00 | 30 | 1000.3 |
| 20260504172947 | 79 | 270 | 5.0 | 7.0 | 0.00 | 0.00 | 0.00 | 30 | 1000.3 |
| 20260504172443 | 79 | 251 | 15.0 | 17.0 | 0.00 | 0.00 | 0.00 | 31 | 1000.6 |
| 20260504171940 | 79 | 295 | 7.0 | 9.0 | 0.00 | 0.00 | 0.00 | 32 | 1000.5 |
| 20260504171437 | 79 | 264 | 8.0 | 9.0 | 0.00 | 0.00 | 0.00 | 33 | 1000.5 |
| 20260504170934 | 78 | 259 | 7.0 | 10.0 | 0.00 | 0.00 | 0.00 | 33 | 1000.5 |
| 20260504170430 | 78 | 239 | 9.0 | 13.0 | 0.00 | 0.00 | 0.00 | 33 | 1000.5 |
| 20260504160349 | 75 | 204 | 9.0 | 13.0 | 0.00 | 0.00 | 0.00 | 33 | 1001.4 |